Home   Weather   New Washington   Past weeks
Flag for USA

Past Weather in New Washington, Indiana, USA — Yesterday and Last 2 Weeks

Now
88 °F

Passing clouds.


Feels Like: 98 °F
Forecast: 95 / 78 °F
Wind: 9 mph from Southwest

Location: Standiford Field

Current Time: Jul 18, 2019 at 9:56:50 pm

Latest Report: Jul 18, 2019 at 8:56 pm


Visibility: 10 mi

Pressure: 29.91 "Hg

Humidity: 65%

Dew Point: 75 °F

Location of New WashingtonLocation

Past Weather in New Washington — Graph

°F

New Washington Temperature Yesterday

Maximum temperature yesterday: 92 °F (at 3:56 pm)
Minimum temperature yesterday: 75 °F (at 6:07 am)
Average temperature yesterday: 81 °F

High & Low Weather Summary for the Past Weeks

 TemperatureHumidityPressure
High94 °F (Jul 18, 3:56 pm)91% (Jul 17, 7:56 am)30.16 "Hg (Jul 17, 7:56 am)
Low68 °F (Jul 13, 6:56 am)31% (Jul 12, 2:56 pm)29.81 "Hg (Jul 11, 5:56 pm)
Average82 °F66%29.97 "Hg
* Reported Jul 3 7:56 pm — Jul 18 7:56 pm, New Washington. Weather by CustomWeather, © 2019

Note: Actual official high and low records may vary slightly from our data, if they occured in-between our weather recording intervals... More about our weather records

Advertising

New Washington Weather History for the Previous 24 Hours

Scroll right to see more
 ConditionsComfort  
Time TempWeatherWind HumidityBarometerVisibility
7:56 pm
Thu, Jul 18
90 °FScattered clouds.12 mph57%29.90 "Hg10 mi
6:56 pm92 °FScattered clouds.12 mph52%29.90 "Hg10 mi
5:56 pm94 °FScattered clouds.8 mph48%29.91 "Hg10 mi
4:56 pm94 °FScattered clouds.5 mph46%29.91 "Hg10 mi
3:56 pm94 °FPartly sunny.7 mph48%29.93 "Hg10 mi
2:56 pm92 °FScattered clouds.3 mph51%29.94 "Hg10 mi
1:56 pm91 °FScattered clouds.8 mph54%29.97 "Hg10 mi
12:56 pm88 °FScattered clouds.6 mph61%29.98 "Hg10 mi
11:56 am84 °FBroken clouds.5 mph70%29.97 "Hg10 mi
11:01 am82 °FBroken clouds.5 mph72%29.99 "Hg10 mi
9:56 am78 °FOvercast.7 mph82%29.98 "Hg10 mi
8:56 am78 °FOvercast.9 mph82%29.98 "Hg10 mi
8:35 am79 °FOvercast.12 mph82%29.99 "Hg9 mi
7:56 am78 °FPartly sunny.7 mph87%29.96 "Hg8 mi
6:56 am78 °FLow clouds.7 mph87%29.95 "Hg9 mi
6:09 am78 °FPassing clouds.5 mph87%29.95 "Hg10 mi
5:56 am76 °FPassing clouds.3 mph91%29.92 "Hg10 mi
4:56 am78 °FPassing clouds.6 mph84%29.90 "Hg10 mi
3:56 am78 °FPassing clouds.5 mph87%29.90 "Hg10 mi
2:56 am77 °FPassing clouds.6 mph90%29.92 "Hg10 mi
2:06 am77 °FHeavy rain. Fog.7 mph90%29.95 "Hg4 mi
1:56 am78 °FThunderstorms. Fog.8 mph90%29.95 "Hg6 mi
1:39 am78 °FThunderstorms. Mostly cloudy.6 mph87%29.96 "Hg8 mi
12:56 am78 °FLight rain. Overcast.5 mph84%29.94 "Hg10 mi
11:56 pm
Wed, Jul 17
78 °FMostly cloudy.6 mph82%29.95 "Hg10 mi
10:56 pm80 °FPassing clouds.6 mph76%29.95 "Hg10 mi
10:31 pm82 °FThundershowers. Passing clouds.8 mph74%29.97 "Hg10 mi
9:56 pm86 °FPartly cloudy.12 mph65%29.93 "Hg10 mi
Weather by CustomWeather, © 2019

See weather overview